Log Time Temp (C) Temp (F) Humidity Pressure DewPoint X Y Z Weather AQI
0 2021-01-25 00:00:03 0 32.0 0 1010.9 broken 0.08 0.99 -0.12 [44.21, 'Overcast', 'Rain throughout the week.'] 30
1 2021-01-25 00:05:04 0 32.0 0 1010.9 broken 0.09 0.99 -0.12 [44.16, 'Overcast', 'Rain throughout the week.'] 30
2 2021-01-25 00:10:04 0 32.0 0 1010.9 broken 0.08 0.99 -0.12 [44.11, 'Overcast', 'Rain throughout the week.'] 30
3 2021-01-25 00:15:04 0 32.0 0 1010.9 broken 0.08 0.99 -0.12 [44.06, 'Overcast', 'Rain throughout the week.'] 30
4 2021-01-25 00:20:04 0 32.0 0 1010.9 broken 0.09 0.99 -0.12 [44.01, 'Overcast', 'Rain throughout the week.'] 30
5 2021-01-25 00:25:04 0 32.0 0 1011.0 broken 0.09 0.99 -0.12 [43.96, 'Overcast', 'Rain throughout the week.'] 30
6 2021-01-25 00:30:04 0 32.0 0 1010.9 broken 0.08 0.99 -0.12 [43.91, 'Overcast', 'Rain throughout the week.'] 30
7 2021-01-25 00:35:03 0 32.0 0 1010.9 broken 0.09 0.99 -0.12 [43.86, 'Overcast', 'Rain throughout the week.'] 30
8 2021-01-25 00:40:04 0 32.0 0 1010.9 broken 0.08 0.99 -0.12 [43.74, 'Overcast', 'Rain throughout the week.'] 30
9 2021-01-25 00:45:03 0 32.0 0 1010.9 broken 0.09 0.99 -0.12 [43.68, 'Overcast', 'Rain throughout the week.'] 30
10 2021-01-25 00:50:04 0 32.0 0 1010.9 broken 0.09 0.99 -0.12 [43.62, 'Overcast', 'Rain throughout the week.'] 30
11 2021-01-25 00:55:04 0 32.0 0 1010.9 broken 0.09 0.99 -0.12 [43.55, 'Overcast', 'Rain throughout the week.'] 30
12 2021-01-25 01:00:04 0 32.0 0 1010.9 broken 0.08 0.99 -0.12 [43.49, 'Overcast', 'Rain throughout the week.'] 30
13 2021-01-25 01:05:04 0 32.0 0 1011.0 broken 0.08 0.99 -0.12 [43.56, 'Overcast', 'Rain throughout the week.'] 30
14 2021-01-25 01:10:04 0 32.0 0 1011.0 broken 0.08 0.99 -0.12 [43.56, 'Rain', 'Rain throughout the week.'] 30
15 2021-01-25 01:15:04 0 32.0 0 1011.0 broken 0.08 0.99 -0.12 [43.47, 'Light Rain', 'Rain throughout the week.'] 30
16 2021-01-25 01:20:04 0 32.0 0 1011.1 broken 0.09 0.99 -0.12 [43.38, 'Drizzle', 'Rain throughout the week.'] 30
17 2021-01-25 01:25:04 0 32.0 0 1011.0 broken 0.09 0.99 -0.12 [43.28, 'Possible Drizzle', 'Rain throughout the week.'] 30
18 2021-01-25 01:30:03 0 32.0 0 1011.1 broken 0.09 0.99 -0.12 [43.18, 'Overcast', 'Rain throughout the week.'] 30
19 2021-01-25 01:35:04 0 32.0 0 1011.0 broken 0.09 0.99 -0.12 [43.08, 'Overcast', 'Rain throughout the week.'] 30
20 2021-01-25 01:40:04 0 32.0 0 1011.0 broken 0.08 0.99 -0.12 [43.3, 'Overcast', 'Rain throughout the week.'] 30
21 2021-01-25 01:45:04 0 32.0 0 1010.9 broken 0.09 0.99 -0.12 [43.19, 'Overcast', 'Rain throughout the week.'] 30
22 2021-01-25 01:50:04 0 32.0 0 1010.8 broken 0.08 0.99 -0.12 [43.08, 'Overcast', 'Rain throughout the week.'] 30
23 2021-01-25 01:55:04 0 32.0 0 1010.7 broken 0.09 0.99 -0.12 [42.98, 'Overcast', 'Rain throughout the week.'] 30
24 2021-01-25 02:00:04 0 32.0 0 1010.7 broken 0.09 0.99 -0.12 [42.97, 'Overcast', 'Rain throughout the week.'] 30
25 2021-01-25 02:05:04 0 32.0 0 1010.8 broken 0.08 0.99 -0.12 [42.89, 'Overcast', 'Rain throughout the week.'] 30
26 2021-01-25 02:10:04 0 32.0 0 1010.8 broken 0.08 0.99 -0.12 [42.81, 'Overcast', 'Rain throughout the week.'] 30
27 2021-01-25 02:15:04 0 32.0 0 1010.7 broken 0.08 0.99 -0.12 [42.53, 'Overcast', 'Rain throughout the week.'] 34
28 2021-01-25 02:20:04 0 32.0 0 1010.8 broken 0.08 0.99 -0.12 [42.69, 'Overcast', 'Rain throughout the week.'] 34
29 2021-01-25 02:25:03 0 32.0 0 1010.7 broken 0.09 0.99 -0.12 [42.6, 'Overcast', 'Rain throughout the week.'] 34
30 2021-01-25 02:30:04 0 32.0 0 1010.7 broken 0.08 0.99 -0.12 [42.52, 'Overcast', 'Rain throughout the week.'] 34
31 2021-01-25 02:35:04 0 32.0 0 1010.8 broken 0.08 0.99 -0.12 [42.45, 'Overcast', 'Rain throughout the week.'] 34
32 2021-01-25 02:40:04 0 32.0 0 1010.8 broken 0.09 0.99 -0.12 [42.38, 'Overcast', 'Rain throughout the week.'] 34
33 2021-01-25 02:45:03 0 32.0 0 1010.7 broken 0.08 0.99 -0.12 [41.69, 'Overcast', 'Rain throughout the week.'] 34
34 2021-01-25 02:50:04 0 32.0 0 1010.7 broken 0.09 0.99 -0.11 [41.62, 'Overcast', 'Rain throughout the week.'] 34
35 2021-01-25 02:55:04 0 32.0 0 1010.6 broken 0.08 0.99 -0.12 [41.56, 'Overcast', 'Rain throughout the week.'] 34
36 2021-01-25 03:00:04 0 32.0 0 1010.6 broken 0.08 0.99 -0.12 [41.5, 'Overcast', 'Rain throughout the week.'] 34
37 2021-01-25 03:05:04 0 32.0 0 1010.7 broken 0.08 0.99 -0.12 [41.45, 'Overcast', 'Rain throughout the week.'] 34
38 2021-01-25 03:10:04 0 32.0 0 1010.7 broken 0.08 0.99 -0.12 [41.41, 'Overcast', 'Rain throughout the week.'] 34
39 2021-01-25 03:15:04 0 32.0 0 1010.7 broken 0.09 0.99 -0.12 [41.43, 'Overcast', 'Rain throughout the week.'] 34
40 2021-01-25 03:20:04 0 32.0 0 1010.6 broken 0.08 0.99 -0.12 [41.27, 'Overcast', 'Rain throughout the week.'] 34
41 2021-01-25 03:25:04 0 32.0 0 1010.7 broken 0.08 0.99 -0.12 [41.25, 'Overcast', 'Rain throughout the week.'] 34
42 2021-01-25 03:30:03 0 32.0 0 1010.6 broken 0.09 0.99 -0.12 [41.24, 'Overcast', 'Rain throughout the week.'] 34
43 2021-01-25 03:35:04 0 32.0 0 1010.5 broken 0.08 0.99 -0.12 [41.22, 'Overcast', 'Rain throughout the week.'] 34
44 2021-01-25 03:40:06 0 32.0 0 1010.5 broken 0.09 0.99 -0.12 [41.38, 'Overcast', 'Rain throughout the week.'] 34
45 2021-01-25 03:45:04 0 32.0 0 1010.6 broken 0.09 0.99 -0.12 [41.34, 'Overcast', 'Rain throughout the week.'] 34
46 2021-01-25 03:50:04 0 32.0 0 1010.6 broken 0.08 0.99 -0.12 [41, 'Overcast', 'Rain throughout the week.'] 34
47 2021-01-25 03:55:04 0 32.0 0 1010.5 broken 0.09 0.99 -0.12 [40.91, 'Overcast', 'Rain throughout the week.'] 34
48 2021-01-25 04:00:04 0 32.0 0 1010.5 broken 0.08 0.99 -0.12 [40.82, 'Overcast', 'Rain throughout the week.'] 34
49 2021-01-25 04:05:04 0 32.0 0 1010.5 broken 0.08 0.99 -0.12 [40.72, 'Overcast', 'Rain throughout the week.'] 34
50 2021-01-25 04:10:04 0 32.0 0 1010.5 broken 0.08 0.99 -0.12 [40.6, 'Overcast', 'Rain throughout the week.'] 34
51 2021-01-25 04:15:04 0 32.0 0 1010.4 broken 0.08 0.99 -0.12 [40.43, 'Overcast', 'Rain throughout the week.'] 34
52 2021-01-25 04:20:04 0 32.0 0 1010.4 broken 0.08 0.99 -0.12 [40.43, 'Overcast', 'Rain throughout the week.'] 34
53 2021-01-25 04:25:04 0 32.0 0 1010.4 broken 0.09 0.99 -0.12 [40.29, 'Overcast', 'Rain throughout the week.'] 34
54 2021-01-25 04:30:04 0 32.0 0 1010.3 broken 0.08 0.99 -0.12 [40.14, 'Overcast', 'Rain throughout the week.'] 34
55 2021-01-25 04:35:04 0 32.0 0 1010.3 broken 0.08 0.99 -0.12 [40, 'Overcast', 'Rain throughout the week.'] 34
56 2021-01-25 04:40:03 0 32.0 0 1010.3 broken 0.08 0.99 -0.12 [39.87, 'Overcast', 'Rain throughout the week.'] 34
57 2021-01-25 04:45:04 0 32.0 0 1010.4 broken 0.09 0.99 -0.12 [40.38, 'Overcast', 'Rain throughout the week.'] 34
58 2021-01-25 04:50:03 0 32.0 0 1010.4 broken 0.09 0.99 -0.11 [40.14, 'Overcast', 'Rain throughout the week.'] 34
59 2021-01-25 04:55:04 0 32.0 0 1010.3 broken 0.08 0.99 -0.12 [40, 'Overcast', 'Rain throughout the week.'] 34
60 2021-01-25 05:00:04 0 32.0 0 1010.5 broken 0.08 0.99 -0.12 [39.89, 'Overcast', 'Rain throughout the week.'] 34
61 2021-01-25 05:05:04 0 32.0 0 1010.5 broken 0.09 0.99 -0.12 [39.8, 'Overcast', 'Rain throughout the week.'] 34
62 2021-01-25 05:10:04 0 32.0 0 1010.6 broken 0.08 0.99 -0.12 [39.71, 'Overcast', 'Rain throughout the week.'] 34
63 2021-01-25 05:15:04 0 32.0 0 1010.8 broken 0.08 0.99 -0.12 [39.51, 'Overcast', 'Rain throughout the week.'] 34
64 2021-01-25 05:20:04 0 32.0 0 1010.8 broken 0.09 0.99 -0.12 [40.04, 'Mostly Cloudy', 'Rain throughout the week.'] 34
65 2021-01-25 05:25:04 0 32.0 0 1010.9 broken 0.08 0.99 -0.12 [39.97, 'Mostly Cloudy', 'Rain throughout the week.'] 34
66 2021-01-25 05:30:04 0 32.0 0 1010.9 broken 0.08 0.99 -0.12 [39.9, 'Mostly Cloudy', 'Rain throughout the week.'] 34
67 2021-01-25 05:35:04 0 32.0 0 1010.8 broken 0.08 0.99 -0.12 [39.84, 'Mostly Cloudy', 'Rain throughout the week.'] 34
68 2021-01-25 05:40:04 0 32.0 0 1010.7 broken 0.08 0.99 -0.12 [40.57, 'Mostly Cloudy', 'Rain throughout the week.'] 34
69 2021-01-25 05:45:03 0 32.0 0 1010.8 broken 0.08 0.99 -0.12 [40.49, 'Mostly Cloudy', 'Rain throughout the week.'] 34
70 2021-01-25 05:50:04 0 32.0 0 1010.8 broken 0.08 0.99 -0.12 [40.42, 'Mostly Cloudy', 'Rain throughout the week.'] 42
71 2021-01-25 05:55:04 0 32.0 0 1010.9 broken 0.08 0.99 -0.12 [40.36, 'Mostly Cloudy', 'Rain throughout the week.'] 42
72 2021-01-25 06:00:04 0 32.0 0 1011.0 broken 0.08 0.99 -0.12 [40.31, 'Mostly Cloudy', 'Rain throughout the week.'] 42
73 2021-01-25 06:05:03 0 32.0 0 1011.0 broken 0.08 0.99 -0.12 [40.16, 'Mostly Cloudy', 'Rain throughout the week.'] 42
74 2021-01-25 06:10:04 0 32.0 0 1011.0 broken 0.08 0.99 -0.12 [40.29, 'Mostly Cloudy', 'Rain throughout the week.'] 42
75 2021-01-25 06:15:04 0 32.0 0 1011.1 broken 0.09 0.99 -0.12 [40.24, 'Mostly Cloudy', 'Rain throughout the week.'] 42
76 2021-01-25 06:20:04 0 32.0 0 1011.1 broken 0.09 0.99 -0.12 [40.2, 'Mostly Cloudy', 'Rain throughout the week.'] 42
77 2021-01-25 06:25:04 0 32.0 0 1011.2 broken 0.08 0.99 -0.12 [40.16, 'Mostly Cloudy', 'Rain throughout the week.'] 42
78 2021-01-25 06:30:06 0 32.0 0 1011.2 broken 0.08 0.99 -0.12 [40.13, 'Mostly Cloudy', 'Rain throughout the week.'] 42
79 2021-01-25 06:35:04 0 32.0 0 1011.2 broken 0.09 0.99 -0.12 [40.1, 'Mostly Cloudy', 'Rain throughout the week.'] 42
80 2021-01-25 06:40:04 0 32.0 0 1011.2 broken 0.09 0.99 -0.12 [40.64, 'Mostly Cloudy', 'Rain throughout the week.'] 42
81 2021-01-25 06:45:03 0 32.0 0 1011.3 broken 0.09 0.99 -0.12 [40.61, 'Mostly Cloudy', 'Rain throughout the week.'] 25
82 2021-01-25 06:50:04 0 32.0 0 1011.3 broken 0.08 0.99 -0.12 [40.59, 'Mostly Cloudy', 'Rain throughout the week.'] 25
83 2021-01-25 06:55:04 0 32.0 0 1011.3 broken 0.08 0.99 -0.12 [40.58, 'Mostly Cloudy', 'Rain throughout the week.'] 25
84 2021-01-25 07:00:04 0 32.0 0 1011.4 broken 0.08 0.99 -0.12 [40.58, 'Mostly Cloudy', 'Rain throughout the week.'] 25
85 2021-01-25 07:05:04 0 32.0 0 1011.4 broken 0.08 0.99 -0.12 [40.72, 'Mostly Cloudy', 'Rain throughout the week.'] 25
86 2021-01-25 07:10:04 0 32.0 0 1011.4 broken 0.08 0.99 -0.12 [40.66, 'Overcast', 'Rain throughout the week.'] 25
87 2021-01-25 07:15:03 0 32.0 0 1011.5 broken 0.08 0.99 -0.12 [40.71, 'Overcast', 'Rain throughout the week.'] 25
88 2021-01-25 07:20:04 0 32.0 0 1011.5 broken 0.09 0.99 -0.12 [40.77, 'Overcast', 'Rain throughout the week.'] 25
89 2021-01-25 07:25:04 0 32.0 0 1011.5 broken 0.08 0.99 -0.12 [40.84, 'Overcast', 'Rain throughout the week.'] 25
90 2021-01-25 07:30:04 0 32.0 0 1011.6 broken 0.08 0.99 -0.12 [40.91, 'Overcast', 'Rain throughout the week.'] 25
91 2021-01-25 07:35:04 0 32.0 0 1011.6 broken 0.08 0.99 -0.12 [40.98, 'Overcast', 'Rain throughout the week.'] 25
92 2021-01-25 07:40:04 0 32.0 0 1011.5 broken 0.08 0.99 -0.12 [41.06, 'Mostly Cloudy', 'Rain throughout the week.'] 25
93 2021-01-25 07:45:04 0 32.0 0 1011.6 broken 0.08 0.99 -0.12 [41.05, 'Overcast', 'Rain throughout the week.'] 25
94 2021-01-25 07:50:04 0 32.0 0 1011.6 broken 0.08 0.99 -0.12 [41.15, 'Overcast', 'Rain throughout the week.'] 25
95 2021-01-25 07:55:04 0 32.0 0 1011.6 broken 0.08 0.99 -0.12 [41.25, 'Mostly Cloudy', 'Rain throughout the week.'] 25
96 2021-01-25 08:00:04 0 32.0 0 1011.7 broken 0.08 0.99 -0.12 [41.44, 'Mostly Cloudy', 'Rain throughout the week.'] 25
97 2021-01-25 08:05:04 0 32.0 0 1011.7 broken 0.09 0.99 -0.12 [41.6, 'Mostly Cloudy', 'Rain throughout the week.'] 25
98 2021-01-25 08:10:04 0 32.0 0 1011.8 broken 0.08 0.99 -0.12 [41.83, 'Mostly Cloudy', 'Rain throughout the week.'] 25
99 2021-01-25 08:15:03 0 32.0 0 1011.8 broken 0.08 0.99 -0.12 [42, 'Mostly Cloudy', 'Rain throughout the week.'] 25
100 2021-01-25 08:20:04 0 32.0 0 1011.8 broken 0.08 0.99 -0.12 [42.19, 'Mostly Cloudy', 'Rain throughout the week.'] 25
101 2021-01-25 08:25:04 0 32.0 0 1011.9 broken 0.08 0.99 -0.12 [42.4, 'Mostly Cloudy', 'Rain throughout the week.'] 25
102 2021-01-25 08:30:03 0 32.0 0 1011.9 broken 0.08 0.99 -0.12 [42.54, 'Mostly Cloudy', 'Rain throughout the week.'] 25
103 2021-01-25 08:35:04 0 32.0 0 1012.0 broken 0.09 0.99 -0.12 [42.74, 'Mostly Cloudy', 'Rain throughout the week.'] 25
104 2021-01-25 08:40:04 0 32.0 0 1012.1 broken 0.09 0.99 -0.12 [42.63, 'Mostly Cloudy', 'Rain throughout the week.'] 25
105 2021-01-25 08:45:04 0 32.0 0 1012.1 broken 0.08 0.99 -0.12 [42.84, 'Mostly Cloudy', 'Rain throughout the week.'] 25
106 2021-01-25 08:50:04 0 32.0 0 1012.2 broken 0.09 0.99 -0.12 [43.06, 'Mostly Cloudy', 'Rain throughout the week.'] 6
107 2021-01-25 08:55:04 0 32.0 0 1012.2 broken 0.09 0.99 -0.12 [43.26, 'Mostly Cloudy', 'Rain throughout the week.'] 6
108 2021-01-25 09:00:04 0 32.0 0 1012.3 broken 0.08 0.99 -0.12 [43.46, 'Mostly Cloudy', 'Rain throughout the week.'] 6
109 2021-01-25 09:05:04 0 32.0 0 1012.3 broken 0.08 0.99 -0.12 [43.66, 'Mostly Cloudy', 'Rain throughout the week.'] 6
110 2021-01-25 09:10:04 0 32.0 0 1012.2 broken 0.08 0.99 -0.12 [43.86, 'Mostly Cloudy', 'Rain throughout the week.'] 6
111 2021-01-25 09:15:04 0 32.0 0 1012.2 broken 0.08 0.99 -0.12 [43.26, 'Mostly Cloudy', 'Rain throughout the week.'] 9
112 2021-01-25 09:20:04 0 32.0 0 1012.2 broken 0.09 0.99 -0.12 [43.91, 'Mostly Cloudy', 'Rain throughout the week.'] 9
113 2021-01-25 09:25:04 0 32.0 0 1012.3 broken 0.09 0.99 -0.12 [44.09, 'Mostly Cloudy', 'Rain throughout the week.'] 9
114 2021-01-25 09:30:04 0 32.0 0 1012.3 broken 0.08 0.99 -0.12 [44.27, 'Mostly Cloudy', 'Rain throughout the week.'] 9
115 2021-01-25 09:35:04 0 32.0 0 1012.3 broken 0.08 0.99 -0.12 [44.45, 'Mostly Cloudy', 'Rain throughout the week.'] 9
116 2021-01-25 09:40:04 0 32.0 0 1012.4 broken 0.09 0.99 -0.12 [44.63, 'Mostly Cloudy', 'Rain throughout the week.'] 9
117 2021-01-25 09:45:06 0 32.0 0 1012.5 broken 0.09 0.99 -0.12 [44.33, 'Mostly Cloudy', 'Rain throughout the week.'] 9
118 2021-01-25 09:50:04 0 32.0 0 1012.5 broken 0.08 0.99 -0.12 [44.53, 'Mostly Cloudy', 'Rain throughout the week.'] 9
119 2021-01-25 09:55:03 0 32.0 0 1012.5 broken 0.09 0.99 -0.12 [44.73, 'Mostly Cloudy', 'Rain throughout the week.'] 9
120 2021-01-25 10:00:04 0 32.0 0 1012.5 broken 0.08 0.99 -0.12 [44.93, 'Mostly Cloudy', 'Rain throughout the week.'] 9
121 2021-01-25 10:05:04 0 32.0 0 1012.6 broken 0.08 0.99 -0.12 [45.09, 'Mostly Cloudy', 'Rain throughout the week.'] 9
122 2021-01-25 10:10:04 0 32.0 0 1012.6 broken 0.08 0.99 -0.12 [45.4, 'Mostly Cloudy', 'Rain throughout the week.'] 9
123 2021-01-25 10:15:04 0 32.0 0 1012.7 broken 0.09 0.99 -0.12 [45.6, 'Mostly Cloudy', 'Rain throughout the week.'] 9
124 2021-01-25 10:20:04 0 32.0 0 1012.6 broken 0.08 0.99 -0.12 [45.81, 'Mostly Cloudy', 'Rain throughout the week.'] 9
125 2021-01-25 10:25:04 0 32.0 0 1012.7 broken 0.08 0.99 -0.12 [46.02, 'Mostly Cloudy', 'Rain throughout the week.'] 9
126 2021-01-25 10:30:04 0 32.0 0 1012.6 broken 0.08 0.99 -0.11 [46.23, 'Mostly Cloudy', 'Rain throughout the week.'] 9
127 2021-01-25 10:35:04 0 32.0 0 1012.6 broken 0.09 0.99 -0.12 [46.43, 'Mostly Cloudy', 'Rain throughout the week.'] 9
128 2021-01-25 10:40:04 0 32.0 0 1012.6 broken 0.09 0.99 -0.12 [46.59, 'Mostly Cloudy', 'Rain throughout the week.'] 9
129 2021-01-25 10:45:04 0 32.0 0 1012.6 broken 0.08 0.99 -0.12 [46.8, 'Mostly Cloudy', 'Rain throughout the week.'] 9
130 2021-01-25 10:50:04 0 32.0 0 1012.6 broken 0.09 0.99 -0.12 [47.05, 'Mostly Cloudy', 'Rain throughout the week.'] 9
131 2021-01-25 10:55:04 0 32.0 0 1012.5 broken 0.09 0.99 -0.12 [47.27, 'Mostly Cloudy', 'Rain throughout the week.'] 9
132 2021-01-25 11:00:04 0 32.0 0 1012.5 broken 0.09 0.99 -0.12 [47.48, 'Mostly Cloudy', 'Rain throughout the week.'] 9
133 2021-01-25 11:05:04 0 32.0 0 1012.4 broken 0.09 0.99 -0.12 [47.7, 'Mostly Cloudy', 'Rain throughout the week.'] 9
134 2021-01-25 11:10:04 0 32.0 0 1012.4 broken 0.08 0.99 -0.12 [47.92, 'Mostly Cloudy', 'Rain throughout the week.'] 9
135 2021-01-25 11:15:03 0 32.0 0 1012.4 broken 0.09 0.99 -0.12 [48.14, 'Mostly Cloudy', 'Rain throughout the week.'] 9
136 2021-01-25 11:20:04 0 32.0 0 1012.3 broken 0.09 0.99 -0.12 [48.36, 'Mostly Cloudy', 'Rain throughout the week.'] 9
137 2021-01-25 11:25:04 0 32.0 0 1012.3 broken 0.09 0.99 -0.12 [48.58, 'Mostly Cloudy', 'Rain throughout the week.'] 9
138 2021-01-25 11:30:04 0 32.0 0 1012.2 broken 0.09 0.99 -0.12 [48.8, 'Mostly Cloudy', 'Rain throughout the week.'] 9
139 2021-01-25 11:35:04 0 32.0 0 1012.1 broken 0.09 0.99 -0.12 [49, 'Partly Cloudy', 'Rain throughout the week.'] 9
140 2021-01-25 11:40:04 0 32.0 0 1012.0 broken 0.09 0.99 -0.12 [48.58, 'Mostly Cloudy', 'Rain throughout the week.'] 9
141 2021-01-25 11:45:04 0 32.0 0 1012.0 broken 0.09 0.99 -0.12 [48.81, 'Mostly Cloudy', 'Rain throughout the week.'] 9
142 2021-01-25 11:50:04 0 32.0 0 1011.9 broken 0.09 0.99 -0.12 [49.04, 'Mostly Cloudy', 'Rain throughout the week.'] 7
143 2021-01-25 11:55:04 0 32.0 0 1011.8 broken 0.09 0.99 -0.12 [49.26, 'Partly Cloudy', 'Rain throughout the week.'] 7
144 2021-01-25 12:00:04 0 32.0 0 1011.8 broken 0.09 0.99 -0.12 [49.33, 'Mostly Cloudy', 'Rain throughout the week.'] 7
145 2021-01-25 12:05:04 0 32.0 0 1011.6 broken 0.09 0.99 -0.12 [49.54, 'Partly Cloudy', 'Rain throughout the week.'] 7
146 2021-01-25 12:10:04 0 32.0 0 1011.6 broken 0.08 0.99 -0.12 [49.76, 'Partly Cloudy', 'Rain throughout the week.'] 7
147 2021-01-25 12:15:04 0 32.0 0 1011.5 broken 0.09 0.99 -0.12 [49.81, 'Partly Cloudy', 'Rain throughout the week.'] 7
148 2021-01-25 12:20:03 0 32.0 0 1011.5 broken 0.09 0.99 -0.12 [50.08, 'Partly Cloudy', 'Rain throughout the week.'] 7
149 2021-01-25 12:25:04 0 32.0 0 1011.4 broken 0.09 0.99 -0.12 [50.3, 'Partly Cloudy', 'Rain throughout the week.'] 7
150 2021-01-25 12:30:04 0 32.0 0 1011.4 broken 0.09 0.99 -0.12 [50.52, 'Partly Cloudy', 'Rain throughout the week.'] 7
151 2021-01-25 12:35:04 0 32.0 0 1011.4 broken 0.09 0.99 -0.12 [50.73, 'Partly Cloudy', 'Rain throughout the week.'] 7
152 2021-01-25 12:40:04 0 32.0 0 1011.3 broken 0.09 0.99 -0.12 [51.29, 'Partly Cloudy', 'Rain throughout the week.'] 7
153 2021-01-25 12:45:03 0 32.0 0 1011.3 broken 0.09 0.99 -0.12 [51.49, 'Partly Cloudy', 'Rain throughout the week.'] 0
154 2021-01-25 12:50:04 0 32.0 0 1011.2 broken 0.09 0.99 -0.12 [51.69, 'Partly Cloudy', 'Rain throughout the week.'] 0
155 2021-01-25 12:55:03 0 32.0 0 1011.3 broken 0.09 0.99 -0.12 [51.87, 'Partly Cloudy', 'Rain throughout the week.'] 0
156 2021-01-25 13:00:04 0 32.0 0 1011.2 broken 0.09 0.99 -0.12 [51.91, 'Partly Cloudy', 'Rain throughout the week.'] 0
157 2021-01-25 13:05:04 0 32.0 0 1011.2 broken 0.09 0.99 -0.12 [52.07, 'Partly Cloudy', 'Rain throughout the week.'] 0
158 2021-01-25 13:10:04 0 32.0 0 1011.2 broken 0.09 0.99 -0.12 [52.24, 'Partly Cloudy', 'Rain throughout the week.'] 0
159 2021-01-25 13:15:04 0 32.0 0 1011.1 broken 0.09 0.99 -0.12 [52.4, 'Partly Cloudy', 'Rain throughout the week.'] 0
160 2021-01-25 13:20:04 0 32.0 0 1011.1 broken 0.09 0.99 -0.12 [52.55, 'Partly Cloudy', 'Rain throughout the week.'] 0
161 2021-01-25 13:25:04 0 32.0 0 1011.1 broken 0.09 0.99 -0.12 [52.71, 'Partly Cloudy', 'Rain throughout the week.'] 0
162 2021-01-25 13:30:04 0 32.0 0 1011.1 broken 0.09 0.99 -0.12 [52.85, 'Partly Cloudy', 'Rain throughout the week.'] 0
163 2021-01-25 13:35:04 0 32.0 0 1011.1 broken 0.09 0.99 -0.12 [52.98, 'Partly Cloudy', 'Rain throughout the week.'] 0
164 2021-01-25 13:40:04 0 32.0 0 1011.1 broken 0.09 0.99 -0.12 [52.07, 'Partly Cloudy', 'Rain throughout the week.'] 0
165 2021-01-25 13:45:04 0 32.0 0 1011.1 broken 0.09 0.99 -0.12 [52.21, 'Partly Cloudy', 'Rain throughout the week.'] 13
166 2021-01-25 13:50:04 0 32.0 0 1011.0 broken 0.09 0.99 -0.12 [52.34, 'Partly Cloudy', 'Rain throughout the week.'] 13
167 2021-01-25 13:55:04 0 32.0 0 1011.1 broken 0.09 0.99 -0.12 [52.46, 'Partly Cloudy', 'Rain throughout the week.'] 13
168 2021-01-25 14:00:04 0 32.0 0 1011.0 broken 0.09 0.99 -0.12 [52.48, 'Partly Cloudy', 'Rain throughout the week.'] 13
169 2021-01-25 14:05:04 0 32.0 0 1011.0 broken 0.09 0.99 -0.12 [52.57, 'Partly Cloudy', 'Rain throughout the week.'] 13
170 2021-01-25 14:10:04 0 32.0 0 1011.1 broken 0.09 0.99 -0.12 [52.65, 'Partly Cloudy', 'Rain throughout the week.'] 13
171 2021-01-25 14:15:04 0 32.0 0 1011.0 broken 0.09 0.99 -0.12 [52.72, 'Partly Cloudy', 'Rain throughout the week.'] 13
172 2021-01-25 14:20:04 0 32.0 0 1010.9 broken 0.09 0.99 -0.12 [52.79, 'Partly Cloudy', 'Rain throughout the week.'] 13
173 2021-01-25 14:25:03 0 32.0 0 1011.0 broken 0.09 0.99 -0.12 [52.71, 'Partly Cloudy', 'Rain throughout the week.'] 13
174 2021-01-25 14:30:04 0 32.0 0 1011.0 broken 0.09 0.99 -0.12 [52.75, 'Partly Cloudy', 'Rain throughout the week.'] 13
175 2021-01-25 14:35:03 0 32.0 0 1011.0 broken 0.09 0.99 -0.12 [52.8, 'Partly Cloudy', 'Rain throughout the week.'] 13
176 2021-01-25 14:40:04 0 32.0 0 1011.0 broken 0.09 0.99 -0.12 [52.84, 'Partly Cloudy', 'Rain throughout the week.'] 13
177 2021-01-25 14:45:04 0 32.0 0 1011.0 broken 0.09 0.99 -0.12 [52.55, 'Partly Cloudy', 'Rain throughout the week.'] 13
178 2021-01-25 14:50:03 0 32.0 0 1010.9 broken 0.09 0.99 -0.12 [52.68, 'Partly Cloudy', 'Rain throughout the week.'] 17
179 2021-01-25 14:55:04 0 32.0 0 1011.0 broken 0.09 0.99 -0.12 [52.69, 'Partly Cloudy', 'Rain throughout the week.'] 17
180 2021-01-25 15:00:04 0 32.0 0 1011.1 broken 0.09 0.99 -0.12 [52.69, 'Partly Cloudy', 'Rain throughout the week.'] 17
181 2021-01-25 15:05:04 0 32.0 0 1011.0 broken 0.09 0.99 -0.12 [52.55, 'Partly Cloudy', 'Rain throughout the week.'] 17
182 2021-01-25 15:10:04 0 32.0 0 1011.0 broken 0.09 0.99 -0.12 [52.45, 'Clear', 'Rain throughout the week.'] 17
183 2021-01-25 15:15:04 0 32.0 0 1011.1 broken 0.09 0.99 -0.12 [52.4, 'Clear', 'Rain throughout the week.'] 17
184 2021-01-25 15:20:04 0 32.0 0 1011.0 broken 0.09 0.99 -0.12 [52.34, 'Clear', 'Rain throughout the week.'] 17
185 2021-01-25 15:25:04 0 32.0 0 1011.0 broken 0.09 0.99 -0.12 [52.27, 'Clear', 'Rain throughout the week.'] 17
186 2021-01-25 15:30:04 0 32.0 0 1011.0 broken 0.09 0.99 -0.12 [52.2, 'Clear', 'Rain throughout the week.'] 17
187 2021-01-25 15:35:04 0 32.0 0 1011.0 broken 0.09 0.99 -0.12 [52.11, 'Clear', 'Rain throughout the week.'] 17
188 2021-01-25 15:40:04 0 32.0 0 1011.0 broken 0.09 0.99 -0.12 [52.1, 'Clear', 'Rain throughout the week.'] 17
189 2021-01-25 15:45:09 0 32.0 0 1011.0 broken 0.09 0.99 -0.12 [51.98, 'Clear', 'Rain throughout the week.'] 17
190 2021-01-25 15:50:03 0 32.0 0 1011.0 broken 0.09 0.99 -0.12 [51.85, 'Clear', 'Rain throughout the week.'] 17
191 2021-01-25 15:55:04 0 32.0 0 1011.1 broken 0.09 0.99 -0.12 [51.69, 'Clear', 'Rain throughout the week.'] 17
192 2021-01-25 16:00:04 0 32.0 0 1011.0 broken 0.09 0.99 -0.12 [51.57, 'Clear', 'Rain throughout the week.'] 17
193 2021-01-25 16:05:04 0 32.0 0 1011.0 broken 0.09 0.99 -0.12 [51.4, 'Clear', 'Rain throughout the week.'] 17
194 2021-01-25 16:10:04 0 32.0 0 1011.0 broken 0.09 0.99 -0.12 [51.21, 'Clear', 'Rain throughout the week.'] 17
195 2021-01-25 16:15:04 0 32.0 0 1011.1 broken 0.09 0.99 -0.12 [50.99, 'Clear', 'Rain throughout the week.'] 17
196 2021-01-25 16:20:04 0 32.0 0 1011.1 broken 0.09 0.99 -0.12 [50.77, 'Clear', 'Rain throughout the week.'] 17
197 2021-01-25 16:25:03 0 32.0 0 1011.0 broken 0.09 0.99 -0.12 [50.52, 'Clear', 'Rain throughout the week.'] 17
198 2021-01-25 16:30:04 0 32.0 0 1011.0 broken 0.09 0.99 -0.12 [50.26, 'Clear', 'Rain throughout the week.'] 17
199 2021-01-25 16:35:04 0 32.0 0 1011.0 broken 0.09 0.99 -0.12 [50, 'Clear', 'Rain throughout the week.'] 17
200 2021-01-25 16:40:04 0 32.0 0 1011.1 broken 0.09 0.99 -0.12 [50.96, 'Clear', 'Rain throughout the week.'] 17
201 2021-01-25 16:45:04 0 32.0 0 1011.0 broken 0.09 0.99 -0.12 [50.66, 'Clear', 'Rain throughout the week.'] 17
202 2021-01-25 16:50:04 0 32.0 0 1011.0 broken 0.09 0.99 -0.12 [50.36, 'Clear', 'Rain throughout the week.'] 5
203 2021-01-25 16:55:04 0 32.0 0 1011.1 broken 0.09 0.99 -0.12 [50.06, 'Clear', 'Rain throughout the week.'] 5
204 2021-01-25 17:00:04 0 32.0 0 1011.1 broken 0.09 0.99 -0.12 [49.77, 'Clear', 'Rain throughout the week.'] 5
205 2021-01-25 17:05:04 0 32.0 0 1011.1 broken 0.09 0.99 -0.12 [48.46, 'Clear', 'Rain throughout the week.'] 5
206 2021-01-25 17:10:04 0 32.0 0 1011.1 broken 0.09 0.99 -0.12 [48.79, 'Partly Cloudy', 'Rain throughout the week.'] 5
207 2021-01-25 17:15:04 0 32.0 0 1011.1 broken 0.09 0.99 -0.12 [48.38, 'Partly Cloudy', 'Rain throughout the week.'] 7
208 2021-01-25 17:20:04 0 32.0 0 1011.1 broken 0.09 0.99 -0.12 [48.13, 'Partly Cloudy', 'Rain throughout the week.'] 7
209 2021-01-25 17:25:04 0 32.0 0 1011.0 broken 0.09 0.99 -0.12 [47.75, 'Partly Cloudy', 'Rain throughout the week.'] 7
210 2021-01-25 17:30:04 0 32.0 0 1011.0 broken 0.09 0.99 -0.12 [47.36, 'Partly Cloudy', 'Rain throughout the week.'] 7
211 2021-01-25 17:35:04 0 32.0 0 1011.1 broken 0.09 0.99 -0.12 [46.9, 'Partly Cloudy', 'Rain throughout the week.'] 7
212 2021-01-25 17:40:04 0 32.0 0 1011.1 broken 0.09 0.99 -0.12 [48.24, 'Partly Cloudy', 'Rain throughout the week.'] 7
213 2021-01-25 17:45:04 0 32.0 0 1011.0 broken 0.09 0.99 -0.12 [47.86, 'Partly Cloudy', 'Rain throughout the week.'] 7
214 2021-01-25 17:50:04 0 32.0 0 1011.1 broken 0.09 0.99 -0.11 [47.5, 'Partly Cloudy', 'Rain throughout the week.'] 7
215 2021-01-25 17:55:03 0 32.0 0 1011.1 broken 0.09 0.99 -0.12 [47.16, 'Partly Cloudy', 'Rain throughout the week.'] 7
216 2021-01-25 18:00:04 0 32.0 0 1011.1 broken 0.09 0.99 -0.12 [46.86, 'Partly Cloudy', 'Rain throughout the week.'] 7
217 2021-01-25 18:05:04 0 32.0 0 1011.1 broken 0.09 0.99 -0.12 [46.59, 'Partly Cloudy', 'Rain throughout the week.'] 7
218 2021-01-25 18:10:04 0 32.0 0 1011.1 broken 0.09 0.99 -0.12 [46.33, 'Partly Cloudy', 'Rain throughout the week.'] 7
219 2021-01-25 18:15:04 0 32.0 0 1011.3 broken 0.09 0.99 -0.12 [46.09, 'Partly Cloudy', 'Rain throughout the week.'] 13
220 2021-01-25 18:20:04 0 32.0 0 1011.2 broken 0.09 0.99 -0.12 [45.86, 'Partly Cloudy', 'Rain throughout the week.'] 13
221 2021-01-25 18:25:03 0 32.0 0 1011.2 broken 0.09 0.99 -0.12 [46.56, 'Partly Cloudy', 'Rain throughout the week.'] 13
222 2021-01-25 18:30:04 0 32.0 0 1011.2 broken 0.09 0.99 -0.12 [46.1, 'Partly Cloudy', 'Rain throughout the week.'] 13
223 2021-01-25 18:35:04 0 32.0 0 1011.2 broken 0.09 0.99 -0.12 [45.88, 'Partly Cloudy', 'Rain throughout the week.'] 13
224 2021-01-25 18:40:04 0 32.0 0 1011.2 broken 0.09 0.99 -0.12 [45.41, 'Partly Cloudy', 'Rain throughout the week.'] 13
225 2021-01-25 18:45:04 0 32.0 0 1011.3 broken 0.09 0.99 -0.12 [45.23, 'Partly Cloudy', 'Rain throughout the week.'] 17
226 2021-01-25 18:50:04 0 32.0 0 1011.3 broken 0.09 0.99 -0.12 [45.07, 'Partly Cloudy', 'Rain throughout the week.'] 17
227 2021-01-25 18:55:04 0 32.0 0 1011.3 broken 0.09 0.99 -0.12 [44.9, 'Partly Cloudy', 'Rain throughout the week.'] 17
228 2021-01-25 19:00:03 0 32.0 0 1011.3 broken 0.09 0.99 -0.12 [44.73, 'Partly Cloudy', 'Rain throughout the week.'] 17
229 2021-01-25 19:05:04 0 32.0 0 1011.3 broken 0.09 0.99 -0.12 [44.54, 'Partly Cloudy', 'Rain throughout the week.'] 17
230 2021-01-25 19:10:03 0 32.0 0 1011.3 broken 0.09 0.99 -0.12 [44.32, 'Partly Cloudy', 'Rain throughout the week.'] 17
231 2021-01-25 19:15:04 0 32.0 0 1011.3 broken 0.09 0.99 -0.12 [44.25, 'Partly Cloudy', 'Rain throughout the week.'] 17
232 2021-01-25 19:20:04 0 32.0 0 1011.4 broken 0.09 0.99 -0.12 [44.31, 'Partly Cloudy', 'Rain throughout the week.'] 17
233 2021-01-25 19:25:04 0 32.0 0 1011.3 broken 0.09 0.99 -0.12 [44.18, 'Partly Cloudy', 'Rain throughout the week.'] 17
234 2021-01-25 19:30:04 0 32.0 0 1011.4 broken 0.09 0.99 -0.12 [44.07, 'Partly Cloudy', 'Rain throughout the week.'] 17
235 2021-01-25 19:35:04 0 32.0 0 1011.4 broken 0.09 0.99 -0.12 [43.51, 'Partly Cloudy', 'Rain throughout the week.'] 17
236 2021-01-25 19:40:04 0 32.0 0 1011.5 broken 0.09 0.99 -0.12 [43.28, 'Partly Cloudy', 'Rain throughout the week.'] 17
237 2021-01-25 19:45:04 0 32.0 0 1011.5 broken 0.09 0.99 -0.12 [43.15, 'Partly Cloudy', 'Rain throughout the week.'] 6
238 2021-01-25 19:50:04 0 32.0 0 1011.6 broken 0.09 0.99 -0.12 [43.03, 'Partly Cloudy', 'Rain throughout the week.'] 6
239 2021-01-25 19:55:04 0 32.0 0 1011.6 broken 0.09 0.99 -0.12 [42.9, 'Partly Cloudy', 'Rain throughout the week.'] 6
240 2021-01-25 20:00:04 0 32.0 0 1011.7 broken 0.09 0.99 -0.12 [42.64, 'Partly Cloudy', 'Rain throughout the week.'] 6
241 2021-01-25 20:05:04 0 32.0 0 1011.7 broken 0.09 0.99 -0.12 [42.5, 'Partly Cloudy', 'Rain throughout the week.'] 6
242 2021-01-25 20:10:03 0 32.0 0 1011.7 broken 0.09 0.99 -0.12 [42.36, 'Partly Cloudy', 'Rain throughout the week.'] 6
243 2021-01-25 20:15:04 0 32.0 0 1011.8 broken 0.09 0.99 -0.12 [42.22, 'Clear', 'Rain throughout the week.'] 6
244 2021-01-25 20:20:04 0 32.0 0 1011.9 broken 0.09 0.99 -0.12 [42.08, 'Clear', 'Rain throughout the week.'] 6
245 2021-01-25 20:25:04 0 32.0 0 1012.0 broken 0.09 0.99 -0.12 [42.04, 'Clear', 'Rain throughout the week.'] 6
246 2021-01-25 20:30:04 0 32.0 0 1012.1 broken 0.09 0.99 -0.12 [42.02, 'Clear', 'Rain throughout the week.'] 6
247 2021-01-25 20:35:04 0 32.0 0 1012.2 broken 0.09 0.99 -0.12 [41.87, 'Clear', 'Rain throughout the week.'] 6
248 2021-01-25 20:40:04 0 32.0 0 1012.2 broken 0.09 0.99 -0.12 [41.73, 'Clear', 'Rain throughout the week.'] 6
249 2021-01-25 20:45:04 0 32.0 0 1012.3 broken 0.09 0.99 -0.12 [41.02, 'Clear', 'Rain throughout the week.'] 6
250 2021-01-25 20:50:04 0 32.0 0 1012.3 broken 0.09 0.99 -0.12 [40.9, 'Clear', 'Rain throughout the week.'] 6
251 2021-01-25 20:55:03 0 32.0 0 1012.2 broken 0.09 0.99 -0.12 [40.78, 'Clear', 'Rain throughout the week.'] 6
252 2021-01-25 21:00:04 0 32.0 0 1012.3 broken 0.09 0.99 -0.12 [40.67, 'Clear', 'Rain throughout the week.'] 6
253 2021-01-25 21:05:04 0 32.0 0 1012.4 broken 0.09 0.99 -0.12 [40.58, 'Clear', 'Rain throughout the week.'] 6
254 2021-01-25 21:10:04 0 32.0 0 1012.4 broken 0.09 0.99 -0.12 [40.49, 'Clear', 'Rain throughout the week.'] 6
255 2021-01-25 21:15:04 0 32.0 0 1012.4 broken 0.09 0.99 -0.12 [40.45, 'Clear', 'Rain throughout the week.'] 42
256 2021-01-25 21:20:04 0 32.0 0 1012.5 broken 0.09 0.99 -0.12 [40.36, 'Clear', 'Rain throughout the week.'] 42
257 2021-01-25 21:25:04 0 32.0 0 1012.5 broken 0.08 0.99 -0.12 [40.3, 'Clear', 'Rain throughout the week.'] 42
258 2021-01-25 21:30:03 0 32.0 0 1012.6 broken 0.09 0.99 -0.12 [40.23, 'Clear', 'Rain throughout the week.'] 42
259 2021-01-25 21:35:04 0 32.0 0 1012.6 broken 0.09 0.99 -0.12 [40.18, 'Clear', 'Rain throughout the week.'] 42
260 2021-01-25 21:40:04 0 32.0 0 1012.7 broken 0.09 0.99 -0.12 [40.1, 'Clear', 'Rain throughout the week.'] 42
261 2021-01-25 21:45:04 0 32.0 0 1012.7 broken 0.09 0.99 -0.12 [40.03, 'Clear', 'Rain throughout the week.'] 42
262 2021-01-25 21:50:06 0 32.0 0 1012.9 broken 0.09 0.99 -0.12 [39.97, 'Clear', 'Rain throughout the week.'] 61
263 2021-01-25 21:55:04 0 32.0 0 1013.0 broken 0.09 0.99 -0.12 [39.9, 'Clear', 'Rain throughout the week.'] 61
264 2021-01-25 22:00:04 0 32.0 0 1013.0 broken 0.09 0.99 -0.12 [39.82, 'Clear', 'Rain throughout the week.'] 61